STARLINK-4335 (53215 NORAD) Tracking and Keplerian Element Data

This shows tracking and keplerian element data for the satellite.

Feedback or suggestion? Click here.




ElementValue
Catalog53215
NameSTARLINK-4335
Epoch Orbit1072
Epoch Day270.14380059
Epoch Year2022
RAAN329.9687
Inclination97.653
Eccentricity0.0002315
Argument of Perigee152.3561
Mean Anonmoly207.7786
Mean Motion15.0125687
Decay Rate-2.208E-05
L11 53215U 22084AC 22270.14380059 -.00002208 00000+0 -16737-3 0 9995
L22 53215 97.6530 329.9687 0002315 152.3561 207.7786 15.01256870 10728

Live tracking and technical data element details for STARLINK-4335 (NORAD 53215). STARLINK-4335 can be tracked NOW for your location showing map with azimuth and elevation plus other details from your city location.

Track the satellite on the map from your city or location and see movement details for azimuth, elevation, latitude, longitude, range, height, and movement on the map or in text.







IsCatalogInMostPopularTable: catalog: 53215, numindb: 3
Update: records affected: 1



GetName: 53215 STARLINK-4335

Hit Count: updated at: Wed, 28 Sep 2022 23:00:07 GMT